Location: Unspecified
(51.3922°N, 0.0000°E)
Time: 03:09:22
(UTC+00:00)

Cosmos 1550 Rocket - Visible Passes

Search period start: 04 April 2026 00:00
Search period end: 14 April 2026 00:00
Orbit: 969 x 995 km, 83.0° (Epoch: 29 March)

Date Brightness Start Highest point End Pass type
(mag) Time Alt. Az. Time Alt. Az. Time Alt. Az.
4 Apr 7.3 01:45:05 10° ENE 01:45:30 10° ENE 01:45:56 10° ENE visible
4 Apr 5.2 03:23:33 10° SSE 03:29:36 55° E 03:35:40 10° NNE visible
5 Apr 6.8 02:08:08 10° ESE 02:12:13 19° ENE 02:16:17 10° NE visible
5 Apr 4.5 03:50:37 10° S 03:56:53 89° WNW 04:03:09 10° N visible
6 Apr 6.1 02:33:44 10° SE 02:39:06 31° E 02:44:28 10° NNE visible
6 Apr 4.7 04:18:14 10° SSW 04:24:20 54° WNW 04:30:28 10° N visible
7 Apr 5.2 03:00:10 10° SSE 03:06:11 53° E 03:12:12 10° NNE visible
7 Apr 5.3 04:46:27 10° SW 04:52:00 33° WNW 04:57:35 10° N visible
8 Apr 6.8 01:44:54 10° ESE 01:48:49 18° ENE 01:52:45 10° NE visible
8 Apr 4.5 03:27:28 11° S 03:33:27 88° E 03:39:43 10° N visible
9 Apr 6.1 02:10:26 10° SE 02:15:42 30° E 02:20:59 10° NNE visible
9 Apr 4.6 03:55:02 11° SSW 04:00:53 57° WNW 04:07:02 10° N visible
10 Apr 5.2 02:37:44 15° SSE 02:42:46 50° E 02:48:45 10° NNE visible
10 Apr 5.2 04:22:55 10° SW 04:28:32 34° WNW 04:34:10 10° N visible
11 Apr 6.8 01:21:41 10° ESE 01:25:26 17° ENE 01:29:11 10° NE visible
11 Apr 4.5 03:05:13 18° S 03:10:00 84° E 03:16:16 10° N visible
12 Apr 6.1 01:47:51 13° SE 01:52:18 29° E 01:57:29 10° NNE visible
12 Apr 4.6 03:32:40 17° SSW 03:37:26 59° WNW 03:43:36 10° N visible
13 Apr 5.2 02:15:16 20° SSE 02:19:21 48° E 02:25:17 10° NNE visible
13 Apr 5.2 04:00:05 13° SW 04:05:04 36° WNW 04:10:45 10° N visible
